Other Surface Observations
Issued by NWS Tucson, AZ

Home | Current Version | Previous Version | Text Only | Print | Product List | Glossary On
Versions: 1 2 3 4 5 6 7 8 9 10 11 12 13 14 15 16 17 18 19 20 21 22 23 24 25 26 27 28 29 30 31 32 33 34 35 36 37 38 39 40 41 42 43 44 45 46 47 48 49 50
000
SXUS55 KTWC 271715
OSOTWC

WEATHER ROUNDUP FOR SOUTHEAST ARIZONA
NATIONAL WEATHER SERVICE TUCSON AZ
1015 AM MST FRI FEB 27 2015

AZZ504>506-514-271815-
LOCATION       SKY/WX    TMP DP  RH WIND       PRES   REMARKS
TUCSON         SUNNY     61  25  25 SE5       29.84F
DAVIS-MONTHAN  SUNNY     61  25  24 VRB2      29.82F
CHILDRENS PARK N/A       51  29  43 E5                PIMA CO DEQ
ALVERNON/22ND  N/A      N/A N/A N/A N/A               PIMA CO DEQ
CHERRY/GLENN   N/A      N/A N/A N/A N/A               PIMA CO DEQ
TANGERINE      N/A       53 N/A N/A SE5               PIMA CO DEQ
CONTL RANCH    N/A       54  29  38 E6                PIMA CO DEQ
GRANT/1ST      N/A       56  26  31 SE4               PIMA CO DEQ
CRAYCROFT/22ND N/A      N/A N/A N/A N/A               PIMA CO DEQ
GOLFLINKS/KOLB N/A       55  25  31 S4                PIMA CO DEQ
AJO/12TH       N/A       55  28  35 S6                PIMA CO DEQ
SAGUARO EAST   N/A      N/A N/A N/A N/A               PIMA CO DEQ
FAIRGROUNDS    N/A       54 N/A N/A SE6               PIMA CO DEQ
SAGUARO        N/A       60  28  30 E3                *SABINO CYN
SAN CARLOS     N/A       49  34  55 W3                *SAN CARLOS
GREEN VALLEY   N/A       55  24  30 S7                PIMA CO DEQ
HORSE CAMP CYN N/A       49  24  37 E14G20            *ARAVAIPA CYN
RINCON MTNS    N/A       43  20  40 S3                *NR MANNING CAMP
$$

AZZ509>511-271815-
LOCATION       SKY/WX    TMP DP  RH WIND       PRES   REMARKS
SAFFORD        MOSUNNY   51  27  39 E18       29.88S
STRAY HORSE    N/A       35  23  62 S3                *
TRAIL CABIN    N/A       38  27  65 E6G10             *N OF GRANVILLE
BLACK HILLS    N/A       50  30  46 SE7G13            *N OF FT THOMAS
DRY LAKE       N/A       39  21  47 S7G10             *NATANES MTNS
NOON CREEK     N/A       49  26  41 NE5               *PINALENO MTNS
COLUMBINE      N/A       30   9  41 S4G11             *PINALENO MTNS
GUTHRIE        N/A       34  22  62 SE9G16            *SW OF GUTHRIE
$$

AZZ502-503-513-271815-
LOCATION       SKY/WX    TMP DP  RH WIND       PRES   REMARKS
NOGALES        SUNNY     62  27  26 S22G30    29.86F
SELLS          N/A       63  27  25 S13G18            *
SASABE         N/A       60  28  29 S14G21            *ALTAR VLY
HOPKINS        N/A       44  21  40 S6G14             *SANTA RITA MTNS
CARR CYN       N/A       55  23  29 N5G14             *W OF HEREFORD
$$

AZZ507-508-512-271815-
LOCATION       SKY/WX    TMP DP  RH WIND       PRES   REMARKS
SIERRA VISTA   MOSUNNY   61  23  23 S15G22    29.87F
DOUGLAS        SUNNY     59  24  26 SE10      29.89F
EMPIRE MTNS    N/A       58  24  27 S16G28            *LAS CIENEGAS NCA
MULESHOE RANCH N/A       54  21  27 SE7G10            *PRESERVE
HEADQUARTERS   N/A       55  22  27 SW4G12            *CHIRICAHUA MTNS
$$

.............................NOTES.............................
THIS IS AN AUTOMATED COLLECTIVE WITH MINIMAL QUALITY CONTROL.
PIMA CO DEQ SITES HAVE NONSTANDARD WIND SENSOR HEIGHTS.
PIMA CO DEQ SITES DO NOT REPORT WIND GUSTS.
* INDICATES WIND SENSORS LOCATED AT 20 FEET INSTEAD OF 33 FEET.
..............................KEY..............................
SKY/WX - SKY CONDITION/WEATHER
TMP    - TEMPERATURE IN FAHRENHEIT
DP     - DEWPOINT IN FAHRENHEIT
RH     - RELATIVE HUMIDITY IN PERCENT
WIND   - DIRECTION AND SPEED IN MILES PER HOUR (MPH)
VRB    - VARIABLE WIND DIRECTION
PRES   - MEAN SEA LEVEL PRESSURE IN INCHES OF MERCURY
         F - FALLING PRESSURE   R - RISING PRESSURE
         S - STEADY PRESSURE
VSB    - VISIBILITY IN MILES
HX     - HEAT INDEX IN FAHRENHEIT
WCI    - WIND CHILL INDEX IN FAHRENHEIT
N/A    - NOT AVAILABLE
AFB    - AIR FORCE BASE
         DAVIS-MONTHAN IS DAVIS-MONTHAN AIR FORCE BASE
CYN    - CANYON
MTNS   - MOUNTAINS
NCA    - NATIONAL CONSERVATION AREA
NR     - NEAR
VLY    - VALLEY
CONTL  - CONTINENTAL
PIMA CO DEQ - PIMA COUNTY DEPT OF ENVIRONMENTAL QUALITY



USA.gov is the U.S. government's official web portal to all federal, state and local government web resources and services.